(233457) = 2006 JM42

Discovered at Kitt Peak on 2006-05-02 by Spacewatch.

Orbit

Orbit type: Main Belt

Note: WebGL enabled browser required.

epoch2023-09-13.0
epoch JD2460200.5
perihelion date2023-02-28.60249
perihelion JD2460004.10249
argument of perihelion (°)176.40081
ascending node (°)119.80661
inclination (°)3.40124
eccentricity0.1218055
perihelion distance (AU)2.6794020
Tisserand w.r.t. Jupiter3.2
ΔV w.r.t. Earth (km/sec)10.3
semimajor axis (AU)3.0510348
mean anomaly (°)36.32194
mean daily motion (°/day)0.18494100
aphelion distance (AU)3.423
period (years)5.33
P-vector [x]0.44171807
P-vector [y]-0.82459701
P-vector [z]-0.35344719
Q-vector [x]0.89567573
Q-vector [y]0.42793142
Q-vector [z]0.12099455
absolute magnitude15.88
phase slope0.15
uncertainty0
referenceMPO 778647
observations used323
oppositions16
arc length (days)10426
first opposition used1995
last opposition used2023
residual rms (arc-secs)0.79
perturbers coarse indicatorM-v
perturbers precise indicator003Ek
first observation date used1995-04-24.0
last observation date used2023-11-09.0
computer nameMPCLINUX
JD of orbit computation2456671.051252
perihelion JD uncertainty (days)1.2172E-04
argument of perihelion uncertainty (°)1.0055E-04
ascending node uncertainty (°)9.7821E-05
inclination uncertainty (°)4.1709E-06
eccentricity uncertainty 3.6848E-08
perihelion distance uncertainty (AU)1.1183E-07
Minimum Orbit Intersection Distances (in AU)
for orbit epoch: 2460200.5, reference: E2023-VG7
Mercury2.23277
Venus1.95221
Earth1.66288
Mars1.25538
Jupiter1.75551
Saturn5.65515
Uranus15.1227
Neptune26.6492

Observations

336 total observations over interval: 1995 04 24.15619 – 2023 11 09.159794
These data are available for download (format description).

Date (UT) J2000 RA J2000 Dec Magn Location Ref
1995 04 24.15619 12 48 22.06 +00 04 41.9 20.9 V 691 – Steward Observatory, Kitt Peak-Spacewatch MPS 266468
1995 04 24.18795 12 48 20.83 +00 04 48.0   691 – Steward Observatory, Kitt Peak-Spacewatch MPS 266468
1995 04 24.21951 12 48 19.53 +00 04 56.1   691 – Steward Observatory, Kitt Peak-Spacewatch MPS 266468
2002 10 10.339780 00 49 38.128 -00 02 37.16 20.02 V 645 – Apache Point-Sloan Digital Sky Survey MPS 266468
2002 10 10.343252 00 49 37.966 -00 02 38.21 20.74   645 – Apache Point-Sloan Digital Sky Survey MPS 266468
2005 02 09.28416 10 15 43.91 +13 11 41.6 21.1 V 691 – Steward Observatory, Kitt Peak-Spacewatch MPS 266468
2005 02 09.30946 10 15 42.76 +13 11 49.1 20.6 V 691 – Steward Observatory, Kitt Peak-Spacewatch MPS 266468
2005 02 09.33459 10 15 41.60 +13 11 56.9 20.8 V 691 – Steward Observatory, Kitt Peak-Spacewatch MPS 266468
2005 02 09.37084 10 15 39.96 +13 12 08.2 18.3 R G96 – Mt. Lemmon Survey MPS 266468
2005 02 09.37732 10 15 39.62 +13 12 09.7 18.9 R G96 – Mt. Lemmon Survey MPS 266468
2005 02 09.38387 10 15 39.36 +13 12 11.8 18.9 R G96 – Mt. Lemmon Survey MPS 266468
2005 02 09.39034 10 15 39.03 +13 12 13.6 19.6 R G96 – Mt. Lemmon Survey MPS 266468
2006 04 24.31712 15 19 38.07 -13 11 36.9 20.4 V 691 – Steward Observatory, Kitt Peak-Spacewatch MPS 173972
2006 04 24.33446 15 19 37.31 -13 11 33.8 20.2 V 691 – Steward Observatory, Kitt Peak-Spacewatch MPS 173972
2006 04 24.35179 15 19 36.56 -13 11 30.6 20.2 V 691 – Steward Observatory, Kitt Peak-Spacewatch MPS 173972
2006 05 02.29469 15 13 43.80 -12 46 08.9 20.3 V 691 – Steward Observatory, Kitt Peak-Spacewatch MPS 171671
2006 05 02.31204 15 13 42.96 -12 46 05.9 20.7 V 691 – Steward Observatory, Kitt Peak-Spacewatch MPS 171671
2006 05 02.32940 15 13 42.08 -12 46 02.2 20.3 V 691 – Steward Observatory, Kitt Peak-Spacewatch MPS 171671
2006 05 09.24898 15 08 10.17 -12 24 10.0 20.0 V 691 – Steward Observatory, Kitt Peak-Spacewatch MPS 171671
2006 05 09.26967 15 08 09.14 -12 24 06.7 20.1 V 691 – Steward Observatory, Kitt Peak-Spacewatch MPS 171671
2006 05 09.29037 15 08 08.08 -12 24 02.9 19.9 V 691 – Steward Observatory, Kitt Peak-Spacewatch MPS 171671
2007 09 03.25232 22 51 56.98 -10 59 01.9 19.0 V 703 – Catalina Sky Survey MPS 266468
2007 09 03.25925 22 51 56.59 -10 59 04.7 20.0 V 703 – Catalina Sky Survey MPS 266468
2007 09 03.26620 22 51 56.30 -10 59 05.3 19.8 V 703 – Catalina Sky Survey MPS 266468
2007 09 03.27318 22 51 55.87 -10 59 08.0 19.7 V 703 – Catalina Sky Survey MPS 266468
2007 09 11.22665 22 46 02.75 -11 41 02.3 19.7 V 691 – Steward Observatory, Kitt Peak-Spacewatch MPS 266468
2007 09 11.24427 22 46 01.99 -11 41 07.7 19.9 V 691 – Steward Observatory, Kitt Peak-Spacewatch MPS 266468
2007 09 11.26191 22 46 01.19 -11 41 13.0 19.8 V 691 – Steward Observatory, Kitt Peak-Spacewatch MPS 266468
2007 09 18.18857 22 41 14.53 -12 13 06.2 18.2 R 699 – Lowell Observatory-LONEOS MPS 266468
2007 09 18.20685 22 41 14.05 -12 13 13.5   699 – Lowell Observatory-LONEOS MPS 266468
2007 09 18.22512 22 41 13.19 -12 13 20.0   699 – Lowell Observatory-LONEOS MPS 266468
2008 10 25.41215 04 41 44.73 +18 13 49.1 20.8 V G96 – Mt. Lemmon Survey MPS 266468
2008 10 25.41651 04 41 44.59 +18 13 48.9 20.4 V G96 – Mt. Lemmon Survey MPS 266468
2008 10 25.42093 04 41 44.48 +18 13 48.4 20.6 V G96 – Mt. Lemmon Survey MPS 266468
2008 10 25.42530 04 41 44.34 +18 13 48.1 20.4 V G96 – Mt. Lemmon Survey MPS 266468
2008 11 07.35099 04 34 01.09 +17 54 11.1 20.3 V G96 – Mt. Lemmon Survey MPS 266468
2008 11 07.35772 04 34 00.80 +17 54 10.1 20.2 V G96 – Mt. Lemmon Survey MPS 266468
2008 11 07.36448 04 34 00.48 +17 54 09.7 20.4 V G96 – Mt. Lemmon Survey MPS 266468
2008 11 07.37121 04 34 00.22 +17 54 09.2 20.3 V G96 – Mt. Lemmon Survey MPS 266468
2008 11 20.26756 04 23 48.52 +17 32 11.5 20.6 V 691 – Steward Observatory, Kitt Peak-Spacewatch MPS 266468
2008 11 20.28516 04 23 47.58 +17 32 09.7 20.7 V 691 – Steward Observatory, Kitt Peak-Spacewatch MPS 266468
2008 11 20.30332 04 23 46.65 +17 32 07.9 20.4 V 691 – Steward Observatory, Kitt Peak-Spacewatch MPS 266468
2008 11 24.16779 04 20 27.68 +17 25 29.8   691 – Steward Observatory, Kitt Peak-Spacewatch MPS 266468
2008 11 24.18540 04 20 26.75 +17 25 28.2   691 – Steward Observatory, Kitt Peak-Spacewatch MPS 266468
2008 11 24.20303 04 20 25.80 +17 25 26.4   691 – Steward Observatory, Kitt Peak-Spacewatch MPS 266468
2008 12 05.23308 04 10 56.53 +17 07 51.0 19.9 V G96 – Mt. Lemmon Survey MPS 267564
2008 12 05.23976 04 10 56.17 +17 07 50.4 19.7 V G96 – Mt. Lemmon Survey MPS 267564
2008 12 05.24642 04 10 55.81 +17 07 49.8 20.0 V G96 – Mt. Lemmon Survey MPS 267564
2008 12 05.25309 04 10 55.48 +17 07 49.2 19.8 V G96 – Mt. Lemmon Survey MPS 267564
2008 12 30.18723 03 54 07.52 +16 46 46.4 20.5 V G96 – Mt. Lemmon Survey MPS 270177
2008 12 30.19574 03 54 07.27 +16 46 46.1 20.8 V G96 – Mt. Lemmon Survey MPS 270177
2008 12 30.20219 03 54 07.05 +16 46 45.5 20.5 V G96 – Mt. Lemmon Survey MPS 270177
2008 12 30.20869 03 54 06.91 +16 46 45.7 20.5 V G96 – Mt. Lemmon Survey MPS 270177
2010 01 11.36043 08 59 32.35 +17 36 47.4 20.7 V G96 – Mt. Lemmon Survey MPS 310231
2010 01 11.36507 08 59 32.13 +17 36 48.9 20.7 V G96 – Mt. Lemmon Survey MPS 310231
2010 01 11.36974 08 59 31.95 +17 36 49.6 20.8 V G96 – Mt. Lemmon Survey MPS 310231
2010 01 11.37444 08 59 31.77 +17 36 50.9 21.0 V G96 – Mt. Lemmon Survey MPS 310231
2010 01 11.37917 08 59 31.56 +17 36 52.0 21.2 V G96 – Mt. Lemmon Survey MPS 310231
2010 02 14.25494 08 32 49.62 +19 45 42.1 20.7 r I41 – Palomar Mountain--ZTF MPS 379600
2010 02 14.26733 08 32 49.03 +19 45 44.9 21.0 r I41 – Palomar Mountain--ZTF MPS 379600
2010 02 14.27981 08 32 48.53 +19 45 46.8 20.8 r I41 – Palomar Mountain--ZTF MPS 379600
2010 02 14.29228 08 32 47.93 +19 45 49.7 21.1 r I41 – Palomar Mountain--ZTF MPS 379600
2010 02 14.30477 08 32 47.35 +19 45 52.3 21.1 r I41 – Palomar Mountain--ZTF MPS 379600
2010 02 19.25654 08 29 17.44 +20 01 13.1 20.8 V G96 – Mt. Lemmon Survey MPS 313310
2010 02 19.26186 08 29 17.23 +20 01 13.9 20.8 V G96 – Mt. Lemmon Survey MPS 313310
2010 02 19.26714 08 29 17.01 +20 01 15.2 21.2 V G96 – Mt. Lemmon Survey MPS 313310
2011 03 02.45296 13 38 10.00 -05 31 28.2 20.9 V 691 – Steward Observatory, Kitt Peak-Spacewatch MPS 373305
2011 03 02.47068 13 38 09.72 -05 31 24.3 20.7 V 691 – Steward Observatory, Kitt Peak-Spacewatch MPS 373305
2011 03 02.48840 13 38 09.48 -05 31 21.8 20.9 V 691 – Steward Observatory, Kitt Peak-Spacewatch MPS 373305
2011 03 10.43209 13 35 43.24 -05 05 19.8 20.8 V 691 – Steward Observatory, Kitt Peak-Spacewatch MPS 374729
2011 03 10.44976 13 35 42.80 -05 05 15.6 20.7 V 691 – Steward Observatory, Kitt Peak-Spacewatch MPS 374729
2011 03 10.46743 13 35 42.33 -05 05 11.7 20.7 V 691 – Steward Observatory, Kitt Peak-Spacewatch MPS 374729
2011 03 14.42173 13 34 00.83 -04 49 50.5 20.5 V 691 – Steward Observatory, Kitt Peak-Spacewatch MPS 375314
2011 03 14.43939 13 34 00.28 -04 49 45.8 20.6 V 691 – Steward Observatory, Kitt Peak-Spacewatch MPS 375315
2011 03 14.45706 13 33 59.75 -04 49 41.6 20.5 V 691 – Steward Observatory, Kitt Peak-Spacewatch MPS 375315
2011 04 11.39853 13 15 35.71 -02 36 15.0 20.7 V 703 – Catalina Sky Survey MPS 379600
2011 04 11.40632 13 15 35.38 -02 36 12.2 20.6 V 703 – Catalina Sky Survey MPS 379600
2011 04 11.41429 13 15 35.06 -02 36 10.2 21.1 V 703 – Catalina Sky Survey MPS 379600
2011 04 11.42179 13 15 34.84 -02 36 07.1 19.7 V 703 – Catalina Sky Survey MPS 379600
2011 06 24.20729 12 56 05.17 -01 46 31.4 20.7 V G96 – Mt. Lemmon Survey MPS 385740
2011 06 24.21249 12 56 05.31 -01 46 32.4 21.4 V G96 – Mt. Lemmon Survey MPS 385740
2011 06 24.21773 12 56 05.46 -01 46 34.2 21.9 V G96 – Mt. Lemmon Survey MPS 385740
2011 06 24.22293 12 56 05.60 -01 46 35.0 21.7 V G96 – Mt. Lemmon Survey MPS 385740
2012 06 22.37575 20 43 38.71 -17 42 27.9 20.1 V G96 – Mt. Lemmon Survey MPS 427745
2012 06 22.38075 20 43 38.60 -17 42 28.8 20.0 V G96 – Mt. Lemmon Survey MPS 427745
2012 06 22.38579 20 43 38.46 -17 42 29.3 19.9 V G96 – Mt. Lemmon Survey MPS 427745
2012 06 22.39083 20 43 38.38 -17 42 29.9 20.0 V G96 – Mt. Lemmon Survey MPS 427745
2012 07 20.29049 20 27 08.94 -19 20 37.4 19.4   704 – Lincoln Laboratory ETS, New Mexico MPS 428897
